Regional Weather Roundup
Issued by NWS

Home | Current Version | Previous Version | Graphics & Text | Print | Product List | Glossary On
Versions: 1 2 3 4 5 6 7 8 9 10 11 12 13 14 15 16 17 18 19 20 21 22 23 24 25 26 27 28 29 30 31 32 33 34 35 36 37 38 39 40 41 42 43 44 45 46 47
000
ASUS45 KPSR 282010
RWRAZ

ARIZONA HOURLY REGIONAL WEATHER ROUNDUP
NATIONAL WEATHER SERVICE PHOENIX AZ
100 PM MST SUN MAY 28 2017

NOTE: FAIR INDICATES FEW OR NO CLOUDS BELOW 12,000 FEET WITH NO
SIGNIFICANT WEATHER AND/OR OBSTRUCTIONS TO VISIBILITY.

AZZ001>003-036-282100-
NORTHWEST ARIZONA

CITY           SKY/WX    TMP DP  RH WIND       PRES   REMARKS
BULLHEAD CITY  SUNNY     99  23   6 N17G24    29.87F
KINGMAN        SUNNY     90  26  10 N9G22     30.04F
$$

AZZ004>008-015-016-018-282100-
NORTH CENTRAL ARIZONA

CITY           SKY/WX    TMP DP  RH WIND       PRES   REMARKS
GRAND CANYON   SUNNY     72  21  14 NE9G21    30.27F
WILLIAMS       MOSUNNY   75  23  14 SE12      30.25F
PRESCOTT       SUNNY     83  20   9 SE8       30.14F
FLAGSTAFF      SUNNY     69  18  14 VRB6      30.27F
PAYSON         SUNNY     84  23  10 SW9G21    30.14F
PAGE           SUNNY     81  24  12 CALM      30.16F
$$

AZZ009>014-017-282100-
NORTHEAST ARIZONA

CITY           SKY/WX    TMP DP  RH WIND       PRES   REMARKS
WINSLOW        SUNNY     83  19   9 VRB5G20   30.14F
SAINT JOHNS    SUNNY     80  15   8 VRB3G16   30.13F
WINDOW ROCK    MOSUNNY   72  21  14 NW9       30.26F
SHOW LOW       SUNNY     77  14   9 CALM      30.19F
$$

AZZ540-542>544-546-548-282100-
GREATER PHOENIX AREA

CITY           SKY/WX    TMP DP  RH WIND       PRES   REMARKS
PHOENIX        MOSUNNY   96  25   8 W6        29.86F
BUCKEYE        SUNNY     97  25   7 S7        29.88F
GLENDALE       MOSUNNY   99  19   6 SW6       29.89F
LUKE AFB       MOSUNNY   97  23   7 W7        29.86F
DEER VALLEY    SUNNY     95  23   7 W7        29.89F
SCOTTSDALE     SUNNY     97  27   8 SW12      29.90F
MESA-FALCON    SUNNY     97  32  10 SW9       29.90F
MESA-GATEWAY   SUNNY     93  30  10 NW6       29.90F
CHANDLER       SUNNY     95  27   8 W7        29.89F
$$

AZZ539-553-282100-
SOUTHWEST MARICOPA COUNTY AND PINAL COUNTY

CITY           SKY/WX    TMP DP  RH WIND       PRES   REMARKS
CASA GRANDE    SUNNY     95  29   9 SW7       29.90F
GILA BEND      FAIR      97  22   7 N5        29.86F
$$

AZZ503-504-507>509-282100-
SOUTHEAST ARIZONA

CITY           SKY/WX    TMP DP  RH WIND       PRES   REMARKS
TUCSON         SUNNY     93  12   5 W5        29.97F
DAVIS-MONTHAN  MOSUNNY   93  13   5 NW3       29.96F
RYAN FIELD     SUNNY     93  12   5 NE9       29.96F
NOGALES        SUNNY     92   8   4 SW7       30.02F
SIERRA VISTA   SUNNY     86   7   5 NE8       30.10F
DOUGLAS        SUNNY     87  12   6 W7        30.04F
SAFFORD        SUNNY     92  12   5 SE5       29.97F
$$

AZZ532-282100-
SOUTHWEST ARIZONA

CITY           SKY/WX    TMP DP  RH WIND       PRES   REMARKS
YUMA           SUNNY    100  32   9 W6        29.86F
$$

CAZ041-043-047-048-061-525>527-560>570-282100-
SOUTHERN CALIFORNIA

CITY           SKY/WX    TMP DP  RH WIND       PRES   REMARKS
DOWNTOWN L.A.  SUNNY     75  55  49 W8        30.00S
L.A. AIRPORT   MOSUNNY   68  57  68 W17G23    30.02S
SAN DIEGO      MOSUNNY   69  56  62 W17       30.03F
BURBANK        SUNNY     79  53  40 S8        29.99F
ONTARIO        SUNNY     79  49  34 SW3       29.99F
RIVERSIDE      SUNNY     80  52  37 VRB5      29.98F
PALM SPRINGS   SUNNY    103  23   6 VRB7      29.88F
EL CENTRO NAS  SUNNY    100  22   6 VRB3      29.86F
IMPERIAL       SUNNY    100  36  11 VRB6      29.84F
BLYTHE         SUNNY     98  26   7 VRB3      29.86F
NEEDLES        SUNNY    104  17   4 N14G21    29.88F
$$

NVZ020-UTZ003-282100-
SOUTHERN NEVADA-UTAH

CITY           SKY/WX    TMP DP  RH WIND       PRES   REMARKS
LAS VEGAS      MOSUNNY   93  14   5 E9        30.00F
SALT LAKE CITY MOSUNNY   77  35  21 W9        30.21F
$$

NMZ009-TXZ055-282100-
NEW MEXICO-WEST TEXAS

CITY           SKY/WX    TMP DP  RH WIND       PRES   REMARKS
ALBUQUERQUE    MOSUNNY   76  29  17 S8        30.21F
EL PASO        MOSUNNY   85  31  14 E9        30.08F
$$


........................KEY........................
SKY/WX - SKY CONDITION/WEATHER
TMP    - TEMPERATURE IN FAHRENHEIT
DP     - DEW POINT IN FAHRENHEIT
RH     - RELATIVE HUMIDITY IN PERCENT
WIND   - DIRECTION AND SPEED IN MILES PER HOUR (MPH)
VRB    - VARIABLE WIND DIRECTION
PRES   - MEAN SEA LEVEL PRESSURE IN INCHES OF MERCURY
         F - FALLING PRESSURE   R - RISING PRESSURE
         S - STEADY PRESSURE
VSB    - VISIBILITY IN MILES
HX     - HEAT INDEX IN FAHRENHEIT
WCI    - WIND CHILL INDEX IN FAHRENHEIT
TC     - TEMPERATURE IN CELSIUS WHICH IS ALSO KNOWN AS
         TEMPERATURE IN CENTIGRADE
AFB    - AIR FORCE BASE
         LUKE AFB IS LUKE AIR FORCE BASE
         DAVIS-MONTHAN IS DAVIS-MONTHAN AIR FORCE BASE
NAS    - NAVAL AIR STATION
         EL CENTRO NAS IS EL CENTRO NAVAL AIR STATION
N/A    - NOT AVAILABLE





USA.gov is the U.S. government's official web portal to all federal, state and local government web resources and services.